Location: Launois
(49.6535°N, 4.5395°E)
Time: 01:21:18
(UTC+00:00)

CZ-2D R/B - Pass Details

Date: 12 August 2024
Orbit: 790 x 842 km, 98.8° (Epoch: 07 September)

Event Time Altitude Azimuth Distance (km) Brightness Sun altitude
Rises 02:30:16 0° 11° (N) 3,328 6.4 -16.1°
Reaches altitude 10° 02:32:38 10° 7° (N) 2,400 5.4 -15.9°
Maximum altitude 02:37:46 53° 292° (WNW) 1,001 2.4 -15.3°
Enters shadow 02:40:57 23° 225° (SW) 1,684 3.1 -15.0°
